[[{"header":{"parameterUnit":"m.s-1","parameterCategory":1,"la1":30.2991,"la2":30.254,"lo1":-89.0895,"lo2":-89.0444,"dy":0.0017,"dx":0.0017,"nx":28,"ny":28,"refTime":"2025-01-26T03:00:00:Z","depth":0,"parameterNumber":2,"parameterNumberName":"U-component_of_WINDS"},"data":[0,0,0,0,0,0,0,0,0,0,0,0,0,0,0,0,0,0,0,0,0,0,0,0,0,0,0,0,0,0,0,0,0,0,0,0,0,0,0,0,0,0,0,0,0,0,0,0,0,0,0,0,0,0,0,0,0,0,-3.0316,-3.0316,0,-3.0322,-3.0322,-3.0322,-3.0224,-3.0222,-3.0219,-3.0216,-3.0227,-3.0229,-3.0232,0,0,0,0,0,0,0,0,0,0,0,0,0,-3.0224,-3.0227,-3.0316,-3.0316,-3.0316,-3.0322,-3.0322,-3.0322,-3.0225,-3.0222,-3.0218,-3.0215,-3.0226,-3.0229,-3.0232,0,0,0,0,0,0,0,0,0,0,0,0,0,-3.0251,-3.0227,-3.0316,-3.0268,-3.0264,-3.0322,-3.0322,-3.0322,-3.0225,-3.0221,-3.0217,-3.0214,-3.0225,-3.0229,-3.0233,-3.0338,0,0,-3.0245,-3.0247,0,0,0,0,0,0,0,0,-3.025,-3.0254,-3.0275,-3.0271,-3.0267,-3.0268,-3.0294,-3.0328,-3.0227,-3.024,-3.0216,-3.0212,-3.0244,-3.0246,-3.0256,-3.0339,-3.0339,-3.0246,-3.0248,-3.025,-3.0251,0,0,0,0,0,0,0,-3.0248,-3.0254,-3.0318,-3.0275,-3.027,-3.0248,-3.0247,-3.03,-3.0265,-3.0239,-3.0232,-3.0233,-3.0241,-3.0253,-3.0256,-3.0339,-3.0246,-3.0249,-3.0252,-3.0253,-3.0512,-3.0516,0,0,0,0,0,0,-3.0252,-3.0253,-3.0318,-3.0319,-3.0248,-3.0253,-3.0252,-3.0272,-3.0264,-3.0258,-3.0237,-3.0229,-3.0248,-3.0251,-3.0256,-3.0381,-3.025,-3.0254,-3.0256,-3.0508,-3.0513,-3.0518,0,0,0,0,0,0,-3.025,-3.0259,-3.0318,-3.0284,-3.029,-3.0259,-3.0282,-3.0274,-3.0285,-3.0262,-3.0256,-3.0255,-3.0244,-3.025,-3.0319,-3.038,-3.0256,-3.0259,-3.0502,-3.0509,-3.0515,-3.063,0,0,0,0,0,0,-3.0248,-3.0259,-3.0297,-3.0285,-3.0292,-3.038,-3.0285,-3.0277,-3.0292,-3.0282,-3.0277,-3.0273,-3.0242,-3.0313,-3.0323,-3.0383,-3.0263,-3.0497,-3.0505,-3.0513,-3.0621,-3.064,-3.0656,0,0,0,0,0,-3.0245,-3.0329,-3.0299,-3.0308,-3.0339,-3.0383,-3.0387,-3.0348,-3.0298,-3.0337,-3.0323,-3.0273,-3.0371,-3.0321,-3.0331,-3.0394,-3.0493,-3.0503,-3.0513,-3.0613,-3.0636,-3.0656,0,0,0,0,0,0,-3.035,-3.0327,-3.0293,-3.0376,-3.0382,-3.0367,-3.0415,-3.0374,-3.0396,-3.0385,-3.0337,-3.0337,-3.0415,-3.0411,-3.0355,-3.0497,-3.0423,-3.0436,-3.0496,-3.0518,-3.0536,-3.0535,-3.0266,0,0,0,0,0,-3.0382,-3.0419,-3.0397,-3.0472,-3.0477,-3.0446,-3.0464,-3.0434,-3.0439,-3.0441,-3.0431,-3.044,-3.0472,-3.0495,-3.0524,-3.062,-3.0619,-3.0668,-3.0686,-3.07,-3.0712,-3.0766,-3.0788,-3.055,-3.055,-3.055,0,0,-3.045,-3.0442,-3.0468,-3.0493,-3.0494,-3.0535,-3.0449,-3.0495,-3.0525,-3.0448,-3.0513,-3.0507,-3.0513,-3.0597,-3.0633,-3.0596,-3.0778,-3.0713,-3.0725,-3.0728,-3.0778,-3.0801,-3.0821,-3.0557,-3.0556,-3.0554,0,0,-3.0594,-3.0591,-3.0654,-3.0658,-3.0661,-3.064,-3.0655,-3.0646,-3.0639,-3.0703,-3.0647,-3.0684,-3.074,-3.0748,-3.0759,-3.091,-3.0866,-3.092,-3.1013,-3.1066,-3.1085,-3.1101,-3.1157,-3.1177,-3.0932,-3.0932,-3.0932,0,-3.0678,-3.0736,-3.0692,-3.0743,-3.0757,-3.0689,-3.0754,-3.076,-3.0773,-3.0785,-3.0743,-3.0815,-3.0814,-3.09,-3.0937,-3.0947,-3.0965,-3.0921,-3.1085,-3.1101,-3.1116,-3.1169,-3.119,-3.0939,-3.0938,-3.0937,-3.0937,0,-3.084,-3.0882,-3.0933,-3.0947,-3.0966,-3.1024,-3.0991,-3.1017,-3.0986,-3.097,-3.1038,-3.1035,-3.1063,-3.1081,-3.1051,-3.1164,-3.1141,-3.1093,-3.1018,-3.1146,-3.1195,-3.1215,-3.0949,-3.0946,-3.0944,-3.0942,0,0,-3.1049,-3.104,-3.106,-3.1066,-3.1066,-3.1098,-3.1154,-3.1181,-3.1205,-3.1217,-3.1264,-3.1315,-3.1271,-3.1284,-3.1255,-3.1301,-3.1424,-3.1248,-3.1247,-3.1282,-3.1551,-3.1588,-3.1612,-3.1395,-3.1398,-3.1401,-3.1551,0,-3.1191,-3.1285,-3.1248,-3.1346,-3.1385,-3.1322,-3.1372,-3.1378,-3.1366,-3.1399,-3.1385,-3.1423,-3.1361,-3.1369,-3.1412,-3.14,-3.1478,-3.1388,-3.1441,-3.1443,-3.1442,-3.1637,-3.1676,-3.1818,-3.157,-3.1573,-3.1575,0,-3.1368,-3.1388,-3.1489,-3.1485,-3.15,-3.1544,-3.1567,-3.1599,-3.1606,-3.1594,-3.161,-3.1572,-3.1629,-3.1554,-3.1634,-3.1574,-3.1594,-3.1591,-3.1596,-3.16,-3.1518,-3.1649,-3.1862,-3.1884,-3.1605,-3.1602,-3.16,0,-3.1513,-3.1565,-3.1633,-3.164,-3.1636,-3.1669,-3.1669,-3.1672,-3.1692,-3.1713,-3.1725,-3.1753,-3.1769,-3.1792,-3.1763,-3.1711,-3.1848,-3.1771,-3.1842,-3.1843,-3.1874,-3.1873,-3.2095,-3.1885,-3.1884,-3.1884,-3.1884,0,-3.1676,-3.1741,-3.1698,-3.174,-3.1812,-3.1771,-3.1844,-3.1837,-3.1841,-3.1882,-3.183,-3.187,-3.1829,-3.1866,-3.1844,-3.1915,-3.1922,-3.1915,-3.1909,-3.1921,-3.1922,-3.1934,-3.1924,-3.189,-3.1888,-3.1887,-3.1886,0,-3.185,-3.1823,-3.1893,-3.1884,-3.1883,-3.1937,-3.193,-3.197,-3.1954,-3.2007,-3.2018,-3.1994,-3.2035,-3.2009,-3.2051,-3.2036,-3.2129,-3.2108,-3.2127,-3.2122,-3.2195,-3.219,-3.2434,-3.2465,-3.2234,-3.2236,-3.2238,0,-3.1956,-3.2004,-3.2001,-3.2024,-3.2028,-3.2066,-3.2086,-3.2048,-3.2071,-3.2085,-3.2124,-3.2161,-3.2188,-3.2258,-3.2246,-3.2278,-3.2259,-3.2342,-3.2263,-3.2275,-3.2263,-3.2261,-3.2267,-3.2359,-3.2361,-3.2364,-3.2365,0,-3.2148,-3.2133,-3.2162,-3.2189,-3.2214,-3.2233,-3.2249,-3.2271,-3.2234,-3.2263,-3.2304,-3.2326,-3.2369,-3.2407,-3.2435,-3.2437,-3.2397,-3.239,-3.2409,-3.2422,-3.2432,-3.243,-3.2172,-3.2385,-3.2383,-3.2382,-3.2381,-3.238,-3.2292,-3.2333,-3.2338,-3.2374,-3.2381,-3.2397,-3.2435,-3.2425,-3.2458,-3.249,-3.2466,-3.2516,-3.2525,-3.2558,-3.2566,-3.2606,-3.2573,-3.2599,-3.2606,-3.2614,-3.2625,-3.2424,-3.2611,-3.261,-3.261,-3.2609,-3.2609,0,-3.2482,-3.2483,-3.2516,-3.2539,-3.2569,-3.2527,-3.2542,-3.257,-3.2614,-3.2625,-3.2654,-3.2703,-3.2741,-3.2733,-3.2767,-3.2801,-3.2784,-3.2812,-3.281,-3.2811,-3.2652,-3.2633,-3.2826,-3.2826,-3.2826,-3.2825,-3.2825,-3.2825,-3.2585,-3.2654,-3.264,-3.2713,-3.2713,-3.2761,-3.2774,-3.279,-3.2798,-3.2856,-3.2887,-3.288,-3.2885,-3.292,-3.2953,-3.295,-3.2966,-3.3002,-3.2992,-3.2844,-3.2822,-3.2802,-3.2784,-3.3005,-3.3006,-3.3149,-3.315,-3.3151]},{"header":{"parameterUnit":"m.s-1","parameterCategory":1,"la1":30.2991,"la2":30.254,"lo1":-89.0895,"lo2":-89.0444,"dy":0.0017,"dx":0.0017,"nx":28,"ny":28,"refTime":"2025-01-26T03:00:00:Z","depth":0,"parameterNumber":3,"parameterNumberName":"V-component_of_WINDS"},"data":[0,0,0,0,0,0,0,0,0,0,0,0,0,0,0,0,0,0,0,0,0,0,0,0,0,0,0,0,0,0,0,0,0,0,0,0,0,0,0,0,0,0,0,0,0,0,0,0,0,0,0,0,0,0,0,0,0,0,0.041,0.0409,0,0.0348,0.0347,0.0346,0.0404,0.0407,0.0409,0.0411,0.0343,0.0339,0.0335,0,0,0,0,0,0,0,0,0,0,0,0,0,0.0575,0.0571,0.041,0.0409,0.0408,0.0348,0.0347,0.0346,0.0404,0.0407,0.041,0.0412,0.0344,0.0339,0.0334,0,0,0,0,0,0,0,0,0,0,0,0,0,0.0507,0.057,0.041,0.043,0.0431,0.0348,0.0347,0.0346,0.0403,0.0407,0.0411,0.0414,0.0346,0.034,0.0334,0.0226,0,0,0.0315,0.0313,0,0,0,0,0,0,0,0,0.0511,0.0501,0.0428,0.0429,0.043,0.0388,0.038,0.0305,0.0403,0.0414,0.0411,0.0416,0.0354,0.0348,0.0328,0.0223,0.022,0.0315,0.0311,0.0309,0.0307,0,0,0,0,0,0,0,0.0515,0.0504,0.0385,0.0427,0.0428,0.0441,0.0435,0.0366,0.0365,0.0413,0.0417,0.0409,0.0356,0.0334,0.0327,0.0219,0.0315,0.031,0.0306,0.0304,0.0022,0.0018,0,0,0,0,0,0,0.0518,0.0507,0.0387,0.0383,0.048,0.0435,0.0429,0.0397,0.0366,0.0365,0.0406,0.0412,0.0343,0.0334,0.0325,0.0197,0.0309,0.0303,0.0299,0.0026,0.0021,0.0017,0,0,0,0,0,0,0.0522,0.0507,0.039,0.0446,0.0432,0.0429,0.0393,0.0394,0.0373,0.0361,0.0361,0.0385,0.0345,0.0333,0.0251,0.0195,0.03,0.0295,0.003,0.0024,0.0019,-0.0061,0,0,0,0,0,0,0.0526,0.0508,0.0468,0.0445,0.0429,0.0317,0.039,0.0391,0.0363,0.037,0.0341,0.0339,0.0347,0.0259,0.0245,0.0189,0.029,0.0035,0.0027,0.0021,-0.0054,-0.0069,-0.0082,0,0,0,0,0,0.0532,0.0447,0.0465,0.0451,0.0379,0.0314,0.0305,0.0317,0.0358,0.0317,0.031,0.034,0.0204,0.025,0.0234,0.0175,0.0039,0.003,0.0021,-0.0047,-0.0066,-0.0082,0,0,0,0,0,0,0.0461,0.0444,0.0465,0.037,0.0343,0.0324,0.0272,0.0297,0.0256,0.0264,0.028,0.0273,0.0185,0.0172,0.0224,0.007,0.0128,0.0115,0.0081,0.0063,0.0049,0.0053,0.0285,0,0,0,0,0,0.0434,0.0384,0.0372,0.0289,0.0275,0.0276,0.0248,0.026,0.0232,0.0221,0.0207,0.0178,0.0128,0.0095,0.0049,-0.0055,-0.0061,-0.0103,-0.0117,-0.0129,-0.014,-0.0197,-0.0216,-0.0012,-0.0012,-0.0012,0,0,0.0379,0.0363,0.033,0.0275,0.0255,0.0202,0.0266,0.0206,0.0166,0.0211,0.0132,0.0121,0.0089,-0.0004,-0.0046,-0.0018,-0.0198,-0.014,-0.0149,-0.0154,-0.0207,-0.0227,-0.0244,-0.0018,-0.0017,-0.0016,0,0,0.025,0.0233,0.0163,0.0143,0.0114,0.0115,0.0098,0.0076,0.007,-0.0008,0.0025,-0.0023,-0.0108,-0.0132,-0.0156,-0.0292,-0.0267,-0.0308,-0.0383,-0.0438,-0.0454,-0.0468,-0.0518,-0.0536,-0.0319,-0.0319,-0.0319,0,0.0183,0.0106,0.0123,0.0062,0.0036,0.0076,0.0004,-0.0017,-0.0061,-0.008,-0.0046,-0.0152,-0.0171,-0.027,-0.0303,-0.0323,-0.0343,-0.0305,-0.0453,-0.0467,-0.048,-0.0527,-0.0546,-0.0324,-0.0323,-0.0323,-0.0322,0,0.0025,-0.0029,-0.0083,-0.0124,-0.0156,-0.0222,-0.0216,-0.025,-0.0235,-0.0238,-0.0318,-0.0339,-0.0388,-0.041,-0.0397,-0.0508,-0.0489,-0.0455,-0.0396,-0.0505,-0.0549,-0.0567,-0.0331,-0.0329,-0.0328,-0.0326,0,0,-0.0152,-0.0181,-0.0201,-0.0219,-0.0248,-0.0291,-0.0355,-0.0402,-0.0432,-0.0463,-0.0518,-0.059,-0.0558,-0.0585,-0.0574,-0.0622,-0.073,-0.0581,-0.0582,-0.0609,-0.0854,-0.0881,-0.0902,-0.0712,-0.0715,-0.0718,-0.0852,0,-0.0283,-0.0394,-0.0379,-0.0486,-0.0537,-0.0499,-0.0555,-0.058,-0.0584,-0.0628,-0.0633,-0.0684,-0.0638,-0.0653,-0.0699,-0.0707,-0.0779,-0.0697,-0.0765,-0.0767,-0.0759,-0.0925,-0.0954,-0.1079,-0.0869,-0.0872,-0.0874,0,-0.045,-0.0485,-0.0597,-0.0617,-0.0638,-0.0689,-0.073,-0.0773,-0.08,-0.0799,-0.0828,-0.0808,-0.0875,-0.0813,-0.0905,-0.085,-0.0876,-0.0884,-0.0889,-0.0896,-0.0828,-0.0938,-0.1119,-0.1138,-0.0901,-0.0898,-0.0897,0,-0.0569,-0.0645,-0.0721,-0.0738,-0.0763,-0.08,-0.0813,-0.0836,-0.0865,-0.0901,-0.092,-0.0964,-0.0989,-0.1024,-0.1017,-0.0973,-0.1111,-0.105,-0.1114,-0.1115,-0.1147,-0.1145,-0.1336,-0.1162,-0.1161,-0.1161,-0.116,0,-0.0718,-0.0788,-0.0775,-0.0823,-0.09,-0.0883,-0.0961,-0.0969,-0.099,-0.1039,-0.1009,-0.1056,-0.1043,-0.109,-0.1085,-0.1162,-0.1173,-0.1176,-0.1174,-0.1179,-0.1179,-0.1198,-0.119,-0.1166,-0.1165,-0.1164,-0.1163,0,-0.0865,-0.0859,-0.094,-0.0957,-0.0962,-0.1019,-0.1034,-0.1079,-0.1079,-0.1142,-0.1156,-0.1158,-0.1211,-0.1207,-0.1268,-0.1264,-0.136,-0.1347,-0.1351,-0.1349,-0.1414,-0.1408,-0.1625,-0.1653,-0.1459,-0.1461,-0.1462,0,-0.096,-0.1013,-0.1035,-0.1065,-0.1079,-0.1128,-0.1157,-0.1142,-0.1173,-0.1207,-0.1249,-0.1299,-0.1339,-0.1426,-0.1434,-0.148,-0.1469,-0.1542,-0.1476,-0.148,-0.1472,-0.147,-0.1475,-0.1555,-0.1557,-0.1559,-0.1561,0,-0.1131,-0.1125,-0.1167,-0.1208,-0.1242,-0.1274,-0.1303,-0.1329,-0.1317,-0.1354,-0.1407,-0.1438,-0.1499,-0.155,-0.1594,-0.1608,-0.1584,-0.1581,-0.1598,-0.1606,-0.1606,-0.1608,-0.1388,-0.1576,-0.1575,-0.1574,-0.1573,-0.1572,-0.1256,-0.1302,-0.1324,-0.1371,-0.1391,-0.1418,-0.1461,-0.1466,-0.151,-0.1557,-0.1546,-0.1606,-0.1632,-0.1688,-0.1707,-0.1755,-0.1729,-0.1754,-0.1761,-0.1768,-0.1776,-0.1596,-0.1762,-0.1762,-0.1762,-0.1761,-0.1761,0,-0.1427,-0.1438,-0.1482,-0.1522,-0.156,-0.153,-0.156,-0.1594,-0.1647,-0.1672,-0.1711,-0.1773,-0.1822,-0.1833,-0.188,-0.1916,-0.1906,-0.193,-0.1928,-0.1932,-0.1796,-0.1776,-0.1937,-0.1937,-0.1937,-0.1937,-0.1937,-0.1937,-0.152,-0.1595,-0.1591,-0.1676,-0.1688,-0.1745,-0.1765,-0.1791,-0.1811,-0.188,-0.192,-0.1926,-0.1946,-0.1994,-0.2038,-0.2039,-0.2059,-0.2087,-0.2085,-0.1959,-0.1941,-0.1924,-0.1906,-0.2091,-0.2092,-0.2217,-0.2218,-0.2219]}]]